Location: Gebenbach
(49.5378°N, 11.8735°E)
Time: 04:03:41
(UTC+00:00)

SKYMED 2 - Pass Details

Date: 29 October 2020
Orbit: 621 x 623 km, 97.9° (Epoch: 25 November)

Event Time Altitude Azimuth Distance (km) Brightness Sun altitude
Rises 17:48:39 0° 10° (N) 2,916 6.9 -18.9°
Reaches altitude 10° 17:50:52 10° 7° (N) 2,005 6.1 -19.3°
Maximum altitude 17:55:09 59° 289° (WNW) 727 4.1 -20.0°
Drops below altitude 10° 17:59:24 10° 210° (SSW) 1,988 6.5 -20.7°
Sets 18:01:36 0° 206° (SSW) 2,890 7.3 -21.0°
